CDT,Max TemperatureF,Mean TemperatureF,Min TemperatureF,Max Dew PointF,MeanDew PointF,Min DewpointF,Max Humidity, Mean Humidity, Min Humidity, Max Sea Level PressureIn, Mean Sea Level PressureIn, Min Sea Level PressureIn, Max VisibilityMiles, Mean VisibilityMiles, Min VisibilityMiles, Max Wind SpeedMPH, Mean Wind SpeedMPH, Max Gust SpeedMPH,PrecipitationIn, CloudCover, Events, WindDirDegrees
2013-4-1,35,27,19,21,17,14,86,66,44,30.29,30.23,30.12,10,10,10,21,14,28,0.00,2,,356
2013-4-2,41,32,23,28,21,12,93,65,38,30.30,30.27,30.24,10,10,10,13,4,13,0.00,2,,66
2013-4-3,50,39,28,34,28,25,93,72,47,30.33,30.25,30.16,10,10,9,24,12,31,0.00,1,,165
2013-4-4,55,44,33,36,30,25,87,64,33,30.15,30.10,30.06,10,10,10,17,13,23,0.00,1,,314
2013-4-5,57,44,30,41,31,27,93,68,38,30.16,30.00,29.72,10,10,10,25,15,33,0.00,3,,110
2013-4-6,60,50,41,45,42,37,93,73,52,29.78,29.63,29.53,10,10,3,24,17,29,0.02,2,Rain,259
2013-4-7,57,44,30,48,38,30,100,86,58,29.90,29.79,29.64,10,5,0,24,11,31,0.01,5,Fog-Rain,80
2013-4-8,69,56,42,54,48,43,100,83,43,29.84,29.69,29.60,10,7,2,28,12,34,0.00,2,,63
2013-4-9,46,40,33,46,38,34,100,99,93,29.98,29.83,29.71,10,4,1,37,28,47,1.92,8,Rain,39
2013-4-10,35,34,32,36,33,32,100,100,93,29.96,29.87,29.73,10,4,0,44,21,55,0.08,8,Rain-Snow,45
2013-4-11,35,34,32,36,33,32,100,100,93,29.74,29.61,29.56,10,3,0,15,8,,0.12,7,Fog-Rain-Snow,337
2013-4-12,33,32,30,32,29,27,100,90,80,29.91,29.78,29.63,10,10,3,25,18,30,0.00,8,Rain-Snow,310
2013-4-13,44,34,24,36,30,25,100,83,61,29.95,29.88,29.74,10,10,9,22,12,28,0.00,4,,299
2013-4-14,60,48,37,55,41,34,100,90,66,29.73,29.51,29.33,10,8,3,32,21,41,0.18,6,Rain,158
2013-4-15,42,36,30,34,28,23,93,72,57,30.06,29.83,29.60,10,10,10,25,17,32,0.00,3,,284
2013-4-16,48,39,30,32,29,28,100,70,46,30.22,30.16,30.05,10,10,8,18,11,25,0.00,2,,8
2013-4-17,39,36,33,37,35,32,100,92,75,30.20,29.98,29.76,10,6,1,25,19,37,0.20,8,Rain-Snow,48
2013-4-18,33,32,30,34,32,28,100,100,93,29.81,29.69,29.62,10,3,0,30,22,39,0.25,7,Rain-Snow,344
2013-4-19,37,30,23,28,24,19,93,79,65,30.06,29.85,29.70,10,10,3,30,23,36,0.00,2,Snow,309
2013-4-20,41,32,23,30,23,18,86,69,49,30.23,30.16,30.06,10,10,10,14,9,16,0.00,2,,87
2013-4-21,60,48,35,48,40,28,100,77,45,30.19,30.08,30.00,10,9,3,30,14,39,0.00,7,Rain,175
2013-4-22,42,36,30,41,35,28,100,100,93,30.16,30.07,29.99,10,4,0,29,17,38,0.20,8,Fog-Rain-Snow,29
2013-4-23,35,30,24,28,24,19,93,80,65,30.19,30.15,30.11,10,10,10,26,19,34,0.00,2,Snow,339
2013-4-24,51,38,24,39,28,23,100,74,38,30.13,30.07,29.96,10,10,4,30,13,39,0.00,1,Rain,262
2013-4-25,62,44,26,37,31,25,100,65,30,30.22,30.12,30.01,10,10,10,23,11,31,0.00,0,,222
2013-4-26,71,58,46,46,37,30,82,48,23,30.17,30.06,29.99,10,10,10,22,14,30,0.00,1,,205
2013-4-27,69,55,41,52,46,39,100,72,33,30.16,30.05,29.93,10,8,0,16,10,23,0.00,1,,208
2013-4-28,80,62,44,50,45,41,100,59,26,29.93,29.80,29.68,10,10,6,26,14,33,0.00,0,,192
2013-4-29,78,64,50,52,48,45,94,59,30,29.79,29.68,29.49,10,10,10,20,12,24,0.00,0,,93
2013-4-30,69,60,51,57,46,37,82,55,35,29.93,29.67,29.44,10,10,2,24,15,33,0.03,2,Rain,336